YAOGAN-30 AE (49028 NORAD) Tracking and Keplerian Element Data

This shows tracking and keplerian element data for the satellite.

Feedback or suggestion? Click here.




ElementValue
Catalog49028
NameYAOGAN-30 AE
Epoch Orbit162
Epoch Day211.06145134
Epoch Year2021
RAAN211.3576
Inclination34.9946
Eccentricity0.000498
Argument of Perigee337.176
Mean Anonmoly65.0603
Mean Motion14.88827505
Decay Rate2.56E-06
L11 49028U 21065C 21211.06145134 .00000256 00000-0 29662-4 0 9990
L22 49028 34.9946 211.3576 0004980 337.1760 65.0603 14.88827505 1620

Live tracking and technical data element details for YAOGAN-30 AE (NORAD 49028). YAOGAN-30 AE can be tracked NOW for your location showing map with azimuth and elevation plus other details from your city location.

Track the satellite on the map from your city or location and see movement details for azimuth, elevation, latitude, longitude, range, height, and movement on the map or in text.







IsCatalogInMostPopularTable: catalog: 49028, numindb: 2
Update: records affected: 1



GetName: 49028 YAOGAN-30 AE

Hit Count: updated at: Sat, 31 Jul 2021 14:22:31 GMT